FW7631 Weather Reports


time (UTC)temp
F
wind
direction
speed
knots
gust
knots
rain 1hr
in
rain 24hr
in
rain mn
in
humidity
%
barometer
mb
20260510171515 61 203 2.6 7.8 0.00 0.31 0.01 74 1018.4
20260510170515 61 248 2.6 6.1 0.00 0.33 0.01 74 1018.5
20260510165537 61 225 3.5 6.1 0.00 0.34 0.01 73 1018.6
20260510164517 62 248 4.3 8.7 0.00 0.36 0.01 73 1019.0
20260510163517 61 315 2.6 7.0 0.00 0.38 0.01 73 1018.8
20260510162517 60 225 4.3 10.4 0.00 0.40 0.01 74 1018.8
20260510161517 59 225 3.5 6.1 0.00 0.41 0.01 77 1018.5
20260510160517 59 225 2.6 7.8 0.00 0.43 0.01 74 1018.4
20260510155517 60 293 2.6 11.3 0.00 0.44 0.01 73 1018.4
20260510154517 61 225 3.5 7.8 0.00 0.46 0.01 73 1018.4
20260510153517 61 203 3.5 7.8 0.00 0.48 0.01 76 1018.2
20260510152517 60 203 3.5 7.8 0.00 0.50 0.01 76 1018.3
20260510151517 60 248 3.5 7.8 0.00 0.52 0.01 79 1018.0
20260510150517 60 248 1.7 5.2 0.00 0.53 0.01 84 1018.0
20260510145517 60 225 1.7 6.1 0.00 0.55 0.01 82 1017.8
20260510144516 59 158 1.7 5.2 0.00 0.56 0.01 87 1017.7
20260510143517 57 225 0.9 2.6 0.00 0.57 0.01 89 1017.6
20260510142517 56 248 0.9 4.3 0.00 0.57 0.01 91 1017.8
20260510141517 55 225 0.9 2.6 0.00 0.58 0.01 93 1017.7
20260510140517 54 203 0.9 3.5 0.00 0.59 0.01 95 1017.7
20260510135517 52 203 0.9 2.6 0.00 0.60 0.01 97 1017.4
20260510134517 52 203 0.9 2.6 0.00 0.60 0.01 98 1017.4
20260510133517 51 0.0 1.7 0.00 0.61 0.01 99 1017.4
20260510132517 51 0.0 1.7 0.00 0.62 0.01 99 1017.5
20260510131516 51 158 0.9 2.6 0.00 0.63 0.01 99 1017.3
20260510130537 50 0.0 0.9 0.00 0.64 0.01 99 1017.4
20260510125516 50 0.0 0.9 0.00 0.64 0.01 99 1017.6
20260510124516 50 0.0 1.7 0.00 0.64 0.01 99 1017.3
20260510123537 49 0.0 1.7 0.00 0.65 0.01 99 1017.3
20260510122517 49 0.0 1.7 0.00 0.65 0.01 99 1017.2
20260510121517 48 248 0.9 2.6 0.00 0.65 0.01 99 1017.2
20260510120516 48 0.0 0.9 0.00 0.65 0.01 99 1017.3
20260510115537 48 0.0 0.9 0.00 0.65 0.01 99 1017.2
20260510114516 48 0.0 0.9 0.00 0.65 0.01 99 1017.1
20260510113536 48 0.0 3.5 0.00 0.65 0.01 99 1017.1
20260510112516 47 0.0 0.0 0.00 0.65 0.01 99 1017.2
20260510111516 47 0.0 0.0 0.00 0.65 0.01 99 1017.3
20260510110516 47 0.0 0.9 0.00 0.65 0.01 99 1017.1
20260510105516 47 0.0 0.0 0.00 0.65 0.01 99 1016.7
20260510104516 47 0.0 2.6 0.00 0.65 0.01 99 1016.5
20260510103516 47 0.0 0.9 0.00 0.65 0.01 99 1016.3
20260510102516 46 0.0 0.9 0.00 0.65 0.01 99 1016.1
20260510101516 46 0.0 1.7 0.01 0.65 0.01 99 1016.1
20260510100556 46 0.0 0.9 0.01 0.65 0.01 99 1015.8
20260510095516 46 0.0 1.7 0.01 0.65 0.01 99 1015.6
20260510094516 46 0.0 0.0 0.01 0.65 0.01 99 1015.7
20260510093516 46 0.0 0.0 0.01 0.65 0.01 99 1015.5
20260510092516 46 0.0 0.0 0.01 0.65 0.01 99 1015.4
20260510091516 46 0.0 0.0 0.00 0.64 0.00 99 1015.7
20260510090516 46 0.0 0.0 0.00 0.64 0.00 99 1015.2
20260510085516 46 0.0 0.0 0.00 0.64 0.00 99 1015.3
20260510084516 47 0.0 0.0 0.00 0.64 0.00 99 1015.3
20260510083516 47 0.0 0.0 0.00 0.64 0.00 99 1015.7
20260510082516 47 0.0 0.0 0.00 0.64 0.00 99 1016.0
20260510081556 46 0.0 0.0 0.00 0.64 0.00 99 1015.9
20260510080516 46 0.0 0.0 0.00 0.64 0.00 99 1016.1
20260510075516 46 0.0 0.0 0.00 0.64 0.00 99 1016.0
20260510074516 46 0.0 2.6 0.00 0.64 0.00 99 1015.9
20260510073516 46 180 0.9 2.6 0.00 0.64 0.00 99 1015.9
20260510072516 46 0.0 0.9 0.00 0.64 0.00 99 1015.8
20260510071515 46 0.0 0.0 0.00 0.64 0.00 99 1015.8
20260510070516 46 0.0 0.0 0.00 0.64 0.00 99 1015.6
20260510065516 46 0.0 0.0 0.00 0.64 0.00 99 1015.5
20260510064516 46 0.0 0.9 0.00 0.64 0.00 99 1015.4
20260510063556 47 0.0 1.7 0.00 0.64 0.00 99 1015.7
20260510062516 47 0.0 0.0 0.00 0.64 0.00 99 1015.7
20260510061516 47 0.0 0.9 0.00 0.64 0.00 99 1015.9
20260510060516 47 0.0 0.0 0.00 0.64 0.00 99 1016.0
20260510055516 47 0.0 1.7 0.00 0.64 0.00 99 1015.8
20260510054516 47 0.0 1.7 0.00 0.64 0.00 99 1016.0
20260510053536 47 0.0 1.7 0.00 0.64 0.00 99 1016.0
20260510052516 46 0.0 1.7 0.00 0.64 0.00 99 1016.0
20260510051536 46 0.0 1.7 0.00 0.64 0.00 99 1016.0
20260510050515 46 0.0 0.0 0.00 0.64 0.00 99 1016.0
20260510045536 46 0.0 0.0 0.00 0.64 0.00 99 1016.3
20260510044516 46 0.0 0.0 0.00 0.64 0.00 99 1016.1
20260510043515 46 0.0 0.0 0.00 0.64 0.00 99 1016.2
20260510042516 46 0.0 0.0 0.00 0.64 0.00 99 1016.3
20260510041515 46 0.0 0.0 0.00 0.64 0.00 99 1016.3
20260510040535 46 0.0 0.0 0.00 0.64 0.00 99 1016.3
20260510035516 46 0.0 0.0 0.00 0.64 0.64 99 1016.4
20260510034516 46 0.0 0.0 0.00 0.64 0.64 99 1016.3
20260510033516 46 0.0 0.9 0.00 0.64 0.64 99 1016.3
20260510032516 46 248 0.9 3.5 0.00 0.64 0.64 99 1016.4
20260510031516 46 270 1.7 5.2 0.00 0.64 0.64 99 1016.3
20260510030516 46 248 1.7 6.1 0.00 0.64 0.64 99 1016.2
20260510025516 46 248 0.9 2.6 0.00 0.64 0.64 99 1016.3
20260510024516 46 270 1.7 4.3 0.00 0.64 0.64 99 1016.2
20260510023516 46 293 0.9 2.6 0.00 0.64 0.64 99 1016.3
20260510022516 46 270 0.9 2.6 0.00 0.64 0.64 99 1016.4
20260510021536 46 180 0.9 3.5 0.00 0.64 0.64 98 1016.5
20260510020516 46 270 0.9 2.6 0.00 0.64 0.64 98 1016.6
20260510015516 46 315 0.9 3.5 0.00 0.64 0.64 98 1016.7
20260510014516 45 0.0 1.7 0.00 0.64 0.64 98 1016.5
20260510013516 45 0.0 1.7 0.00 0.64 0.64 98 1016.5
20260510012516 45 0.0 0.0 0.00 0.64 0.64 98 1016.6
20260510011516 45 0.0 0.0 0.00 0.64 0.64 98 1016.6
20260510010516 45 0.0 0.0 0.00 0.64 0.64 98 1016.6
20260510005516 45 0.0 0.0 0.00 0.64 0.64 98 1016.5
20260510004515 45 0.0 0.0 0.00 0.64 0.64 98 1016.4
20260510003515 45 0.0 0.0 0.00 0.64 0.64 98 1016.3
20260510002636 45 0.0 0.0 0.00 0.64 0.64 98 1016.2
20260510001516 45 0.0 0.0 0.00 0.64 0.64 98 1016.2
20260510000516 45 0.0 0.0 0.00 0.64 0.64 98 1016.1
20260509235516 45 0.0 0.9 0.00 0.64 0.64 98 1016.1
20260509234515 45 0.0 0.0 0.00 0.64 0.64 98 1016.0
20260509233516 45 0.0 0.9 0.00 0.64 0.64 98 1015.8
20260509232516 45 0.0 0.9 0.00 0.64 0.64 98 1015.8
20260509231516 45 0.0 0.0 0.00 0.64 0.64 98 1015.8
20260509230516 45 0.0 0.9 0.00 0.64 0.64 98 1015.8
20260509225515 45 0.0 0.9 0.00 0.64 0.64 98 1015.7
20260509224516 45 0.0 0.9 0.00 0.64 0.64 98 1015.7
20260509223515 45 0.0 1.7 0.00 0.64 0.64 98 1015.6
20260509222515 45 0.0 0.9 0.00 0.64 0.64 98 1015.6
20260509221515 45 0.0 1.7 0.00 0.64 0.64 98 1015.6
20260509220515 45 0.0 4.3 0.00 0.64 0.64 98 1015.6
20260509215515 45 0.0 0.9 0.00 0.64 0.64 98 1015.7
20260509214535 45 0.0 2.6 0.01 0.64 0.64 98 1015.6
20260509213515 45 0.0 0.9 0.01 0.64 0.64 98 1015.6
20260509212515 45 158 0.9 2.6 0.01 0.64 0.64 98 1015.6
20260509211515 44 0.0 1.7 0.02 0.64 0.64 97 1015.7
20260509210515 44 180 0.9 2.6 0.03 0.64 0.64 97 1015.8
20260509205515 44 180 0.9 3.5 0.04 0.64 0.64 97 1015.9
20260509204535 44 180 0.9 2.6 0.04 0.63 0.63 98 1016.1
20260509203515 44 180 0.9 1.7 0.04 0.63 0.63 97 1016.2
20260509202515 44 0.0 0.9 0.05 0.63 0.63 97 1016.0
20260509201535 44 203 0.9 2.6 0.05 0.62 0.62 97 1016.1
20260509200515 44 0.0 1.7 0.05 0.61 0.61 97 1016.1
20260509195515 44 248 0.9 2.6 0.06 0.60 0.60 97 1016.1
20260509194515 44 203 0.9 5.2 0.07 0.59 0.59 97 1016.0
20260509193515 43 180 0.9 2.6 0.09 0.59 0.59 97 1016.0
20260509192515 43 180 0.9 2.6 0.10 0.58 0.58 97 1016.2
20260509191517 43 0.0 1.7 0.12 0.57 0.57 97 1016.5
20260509190517 43 180 0.9 2.6 0.13 0.56 0.56 97 1016.7
20260509185517 43 203 0.9 2.6 0.13 0.54 0.54 97 1016.7
20260509184517 43 0.0 1.7 0.13 0.52 0.52 97 1016.8
20260509183517 43 203 0.9 2.6 0.13 0.50 0.50 97 1016.8
20260509182517 42 225 0.9 2.6 0.12 0.48 0.48 97 1016.8
20260509181517 42 225 0.9 1.7 0.11 0.45 0.45 97 1017.0
20260509180517 42 225 0.9 1.7 0.11 0.43 0.43 97 1017.0
20260509175517 42 0.0 1.7 0.10 0.41 0.41 97 1017.0
20260509174517 43 248 0.9 1.7 0.10 0.39 0.39 97 1017.1
20260509173517 43 248 0.9 2.6 0.10 0.37 0.37 97 1017.0
20260509172517 43 270 1.7 2.6 0.11 0.36 0.36 97 1017.1